Waarnemingen

Advertentie
Mijn weer
Leek Thorncliffe, Groot Brittannië (3330): temperatuur & dauwpunt: 30.05.2020 20:00:00 - 05.06.2020 20:00:00 (BST)Leek Thorncliffe, Groot Brittannië (3330): temperatuur -20cm & temperatuur -100cm: 30.05.2020 20:00:00 - 05.06.2020 20:00:00 (BST)Leek Thorncliffe, Groot Brittannië (3330): windsnelheid & windstoten: 30.05.2020 20:00:00 - 05.06.2020 20:00:00 (BST)Leek Thorncliffe, Groot Brittannië (3330): windrichting: 30.05.2020 20:00:00 - 05.06.2020 20:00:00 (BST)Leek Thorncliffe, Groot Brittannië (3330): luchtdruk: 30.05.2020 20:00:00 - 05.06.2020 20:00:00 (BST)Leek Thorncliffe, Groot Brittannië (3330): zicht: 30.05.2020 20:00:00 - 05.06.2020 20:00:00 (BST)Leek Thorncliffe, Groot Brittannië (3330): neerslag: 30.05.2020 20:00:00 - 05.06.2020 20:00:00 (BST)
Datum & Tijd tt [°C] td [°C] tt -20cm [°C] tt -100cm [°C] ff [km/u] ff [kn] fx [km/u] fx [kn] dd ppp [hPa] vv [km] rr [mm]
05.06.2020 20:00:00 8,6 2,2 - - 22 12 52 28 WNW 996,4 28 0,0
05.06.2020 19:00:00 9,2 1,9 - - 26 14 57 31 WNW 996,0 30 0,0
05.06.2020 18:00:00 11,1 2,6 - - 26 14 57 31 WNW 995,3 30 0,0
05.06.2020 17:00:00 10,7 2,2 - - 28 15 61 33 WNW 995,5 27 0,0
05.06.2020 16:00:00 11,5 3,0 - - 29 16 59 32 WNW 995,6 14 0,0
05.06.2020 15:00:00 10,0 2,3 - - 28 15 52 28 WNW 996,1 30 0,2
05.06.2020 14:00:00 11,4 3,5 - - 26 14 52 28 WNW 995,7 24 0,0
05.06.2020 13:00:00 10,1 3,2 - - 26 14 48 26 WNW 995,7 19 0,0
05.06.2020 12:00:00 9,2 7,5 - - 13 7 - - NW 996,0 21 0,8
05.06.2020 11:00:00 7,7 5,6 - - 13 7 - - NW 996,2 35 0,2
05.06.2020 10:00:00 7,3 5,5 13,4 12,4 9 5 - - NW 996,4 27 0,2
05.06.2020 09:00:00 7,7 4,4 - - 15 8 - - NNW 996,4 35 0,0
05.06.2020 08:00:00 7,4 5,6 - - 15 8 - - N 996,0 45 0,0
05.06.2020 07:00:00 6,6 5,3 - - 13 7 - - N 995,7 40 0,2
05.06.2020 06:00:00 7,6 7,1 - - 21 11 48 26 NW 995,0 9 1,0
05.06.2020 05:00:00 7,5 6,4 - - 18 10 - - WNW 995,1 18 0,0
05.06.2020 04:00:00 7,4 5,7 - - 15 8 - - NW 995,7 22 0,0
05.06.2020 03:00:00 7,8 6,3 - - 15 8 - - WNW 996,5 24 0,0
05.06.2020 02:00:00 7,7 6,3 - - 13 7 - - WNW 997,0 27 0,0
05.06.2020 01:00:00 8,1 7,0 - - 16 9 - - WNW 997,7 26 0,0
05.06.2020 00:00:00 8,3 7,2 - - 13 7 - - WNW 998,3 27 0,0
04.06.2020 23:00:00 8,7 8,2 - - 11 6 - - W 998,9 19 0,0
04.06.2020 22:00:00 8,7 8,2 - - 8 4 - - W 999,4 9 0,0
04.06.2020 21:00:00 8,9 8,0 - - 9 5 - - W 999,9 18 0,2
04.06.2020 20:00:00 9,3 7,8 - - 9 5 - - NW 1000,3 27 0,2
04.06.2020 19:00:00 10,6 7,1 - - 15 8 - - WNW 1000,3 30 0,0
04.06.2020 18:00:00 11,8 7,7 - - 13 7 - - WNW 1000,3 35 0,0
04.06.2020 17:00:00 12,6 7,4 - - 18 10 - - WNW 1000,8 35 0,0
04.06.2020 16:00:00 10,5 8,7 - - 9 5 - - NW 1001,8 28 0,4
04.06.2020 15:00:00 9,3 7,1 - - 13 7 - - NW 1002,5 28 0,0
04.06.2020 14:00:00 9,6 6,5 - - 13 7 - - NW 1003,0 28 0,0
04.06.2020 13:00:00 9,3 7,6 - - 11 6 - - NNW 1003,6 21 0,0
04.06.2020 12:00:00 7,8 7,7 - - 8 4 - - W 1004,3 7 0,4
04.06.2020 11:00:00 7,0 6,6 - - 8 4 - - W 1005,0 2,5 0,8
04.06.2020 10:00:00 7,7 3,9 13,7 12,4 8 4 - - W 1005,4 5 0,0
04.06.2020 09:00:00 7,7 5,6 - - 5 3 - - WZW 1005,8 30 0,0
04.06.2020 08:00:00 7,0 5,2 - - 2 1 - - NW 1006,7 30 0,0
04.06.2020 07:00:00 6,3 5,4 - - 2 1 - - NW 1007,0 30 0,0
04.06.2020 06:00:00 5,7 5,2 - - 5 3 - - NNO 1007,6 25 0,0
04.06.2020 05:00:00 5,3 4,4 - - 4 2 - - NO 1008,0 28 0,0
04.06.2020 04:00:00 5,9 4,5 - - 8 4 - - NNO 1008,3 28 0,0
04.06.2020 03:00:00 6,5 5,3 - - 8 4 - - NNO 1008,7 29 0,0
04.06.2020 02:00:00 7,5 6,5 - - 15 8 - - N 1009,5 25 0,0
04.06.2020 01:00:00 6,0 5,1 - - 9 5 - - NNO 1010,5 23 0,0
04.06.2020 00:00:00 6,0 5,1 - - 11 6 - - N 1010,8 27 0,0
03.06.2020 23:00:00 5,2 3,4 - - 5 3 - - NO 1011,7 25 0,0
03.06.2020 22:00:00 7,9 5,3 - - 9 5 - - N 1011,3 29 0,0
03.06.2020 21:00:00 8,8 6,1 - - 13 7 - - NNO 1011,3 26 0,0
03.06.2020 20:00:00 8,9 5,8 - - 16 9 - - NNO 1011,4 30 0,0
03.06.2020 19:00:00 8,8 6,8 - - 22 12 - - NNO 1011,4 26 0,0
03.06.2020 18:00:00 8,9 7,2 - - 28 15 48 26 NO 1011,1 19 0,0
03.06.2020 17:00:00 9,3 7,7 - - 31 17 50 27 NO 1011,2 15 0,0
03.06.2020 16:00:00 10,0 8,4 - - 35 19 50 27 ONO 1010,9 11 0,0
03.06.2020 15:00:00 10,9 8,9 - - 31 17 52 28 ONO 1011,0 12 0,0
03.06.2020 14:00:00 11,5 9,9 - - 29 16 - - ONO 1010,9 11 0,0
03.06.2020 13:00:00 11,3 9,8 - - 26 14 - - ONO 1011,0 19 0,0
03.06.2020 12:00:00 11,3 9,7 - - 37 20 48 26 ONO 1010,7 23 0,2
03.06.2020 11:00:00 11,7 10,6 - - 37 20 48 26 O 1010,6 8 0,6
03.06.2020 10:00:00 10,6 9,6 15,5 12,2 31 17 46 25 O 1010,9 10 0,6
03.06.2020 09:00:00 10,0 8,6 - - 31 17 - - O 1011,1 11 0,0
03.06.2020 08:00:00 10,2 9,1 - - 29 16 - - ONO 1011,1 13 0,2
03.06.2020 07:00:00 11,0 8,7 - - 22 12 - - O 1011,0 21 0,0
03.06.2020 06:00:00 11,4 8,6 - - 5 3 - - N 1011,4 15 0,2
03.06.2020 05:00:00 12,6 8,3 - - 26 14 - - O 1010,8 28 0,0
03.06.2020 04:00:00 11,7 9,1 - - 9 5 - - ONO 1011,9 13 0,0
03.06.2020 03:00:00 12,5 7,5 - - 4 2 - - N 1012,3 25 0,0
03.06.2020 02:00:00 13,1 7,6 - - 8 4 - - NO 1013,0 25 0,0
03.06.2020 01:00:00 14,2 7,4 - - 5 3 - - N 1013,5 29 0,0
03.06.2020 00:00:00 14,7 7,6 - - 4 2 - - NO 1014,1 30 0,0
02.06.2020 23:00:00 14,3 8,1 - - 9 5 - - NO 1014,8 30 0,0
02.06.2020 22:00:00 15,5 8,0 - - 5 3 - - NO 1015,1 30 0,0
02.06.2020 21:00:00 17,0 8,3 - - 2 1 - - NNW 1015,3 27 0,0
02.06.2020 20:00:00 18,1 8,3 - - 8 4 - - NNW 1015,5 30 0,0
02.06.2020 19:00:00 19,7 7,5 - - 11 6 - - NW 1015,6 30 0,0
02.06.2020 18:00:00 21,8 6,1 - - 13 7 - - NW 1015,7 30 0,0
02.06.2020 17:00:00 22,1 5,0 - - 11 6 - - NNW 1016,3 30 0,0
02.06.2020 16:00:00 22,2 5,6 - - 13 7 - - NW 1017,2 35 0,0
02.06.2020 15:00:00 21,7 4,8 - - 9 5 - - NW 1017,8 40 0,0
02.06.2020 14:00:00 20,9 4,4 - - 13 7 - - NW 1018,8 40 0,0
02.06.2020 13:00:00 20,4 5,4 - - 11 6 - - NW 1019,3 45 0,0
02.06.2020 12:00:00 19,2 2,7 - - 9 5 - - NW 1020,1 40 0,0
02.06.2020 11:00:00 17,5 4,9 - - 5 3 - - NNW 1020,9 30 0,0
02.06.2020 10:00:00 16,2 3,5 - - 5 3 - - WZW 1021,6 35 -
02.06.2020 09:00:00 16,2 3,3 - - 4 2 - - ONO 1021,9 40 -
02.06.2020 08:00:00 14,8 4,3 - - 9 5 - - NO 1022,3 35 0,0
02.06.2020 07:00:00 11,3 5,1 - - 9 5 - - NNO 1023,0 30 0,0
02.06.2020 06:00:00 8,6 3,5 - - 9 5 - - NNO 1023,4 35 0,0
02.06.2020 05:00:00 7,9 3,3 - - 9 5 - - NO 1023,5 35 0,0
02.06.2020 04:00:00 9,2 3,4 - - 4 2 - - ONO 1023,8 30 0,0
02.06.2020 03:00:00 10,2 4,2 - - 4 2 - - W 1023,9 30 0,0
02.06.2020 02:00:00 10,7 5,7 - - 24 13 - - O 1023,9 28 0,0
02.06.2020 01:00:00 11,0 5,0 - - 37 20 - - O 1023,8 30 0,0
02.06.2020 00:00:00 11,6 4,9 - - 35 19 - - O 1024,2 30 0,0
01.06.2020 23:00:00 12,8 4,9 - - 34 18 - - O 1024,2 30 0,0
01.06.2020 22:00:00 14,1 6,0 - - 29 16 - - O 1024,1 30 0,0
01.06.2020 21:00:00 15,9 8,4 - - 21 11 - - O 1023,5 30 0,0
01.06.2020 20:00:00 18,8 8,2 - - 15 8 - - O 1023,0 30 0,0
01.06.2020 19:00:00 19,5 7,6 - - 13 7 - - O 1023,0 30 0,0
01.06.2020 18:00:00 19,5 7,6 - - 11 6 - - O 1023,2 30 0,0
01.06.2020 17:00:00 21,5 9,1 - - 18 10 - - O 1023,1 30 0,0
01.06.2020 16:00:00 20,8 8,6 - - 18 10 - - ONO 1023,5 30 0,0
01.06.2020 15:00:00 20,1 6,9 - - 16 9 - - O 1023,8 30 0,0
01.06.2020 14:00:00 19,7 8,0 - - 21 11 - - ONO 1024,1 25 0,0
01.06.2020 13:00:00 18,8 8,0 - - 21 11 - - O 1024,6 19 0,0
01.06.2020 12:00:00 19,5 8,7 - - 21 11 - - O 1024,8 21 0,0
01.06.2020 11:00:00 18,2 7,6 - - 24 13 - - O 1025,0 30 0,0
01.06.2020 10:00:00 17,3 7,6 14,7 11,9 21 11 - - ONO 1025,4 30 0,0
01.06.2020 09:00:00 15,9 7,2 - - 21 11 - - ONO 1025,6 30 0,0
01.06.2020 08:00:00 14,1 7,0 - - 16 9 - - ONO 1025,8 23 0,0
01.06.2020 07:00:00 11,1 6,0 - - 16 9 - - ONO 1026,3 30 0,0
01.06.2020 06:00:00 9,3 5,7 - - 21 11 - - ONO 1026,0 30 0,0
01.06.2020 05:00:00 9,2 4,7 - - 24 13 - - O 1025,8 30 0,0
01.06.2020 04:00:00 9,4 4,7 - - 24 13 - - O 1025,9 35 0,0
01.06.2020 03:00:00 9,9 4,7 - - 28 15 - - O 1025,6 30 0,0
01.06.2020 02:00:00 10,5 4,6 - - 28 15 - - O 1025,7 35 0,0
01.06.2020 01:00:00 10,8 4,5 - - 29 16 46 25 O 1025,8 35 0,0
01.06.2020 00:00:00 12,1 4,9 - - 31 17 - - O 1025,6 35 0,0
31.05.2020 23:00:00 12,9 5,0 - - 26 14 - - O 1025,8 35 0,0
31.05.2020 22:00:00 13,8 5,3 - - 22 12 - - O 1025,4 35 0,0
31.05.2020 21:00:00 15,8 5,4 - - 24 13 - - O 1024,5 35 0,0
31.05.2020 20:00:00 18,4 5,9 - - 22 12 - - O 1023,7 30 0,0
31.05.2020 19:00:00 19,2 6,4 - - 21 11 - - OZO 1023,2 29 0,0
31.05.2020 18:00:00 19,8 7,2 - - 21 11 - - O 1022,9 30 0,0
31.05.2020 17:00:00 21,6 6,9 - - 18 10 - - O 1022,7 30 0,0
31.05.2020 16:00:00 21,9 7,7 - - 21 11 - - O 1022,8 22 0,0
31.05.2020 15:00:00 21,3 7,8 - - 18 10 - - OZO 1023,2 28 0,0
31.05.2020 14:00:00 21,1 9,0 - - 15 8 - - OZO 1023,5 11 0,0
31.05.2020 13:00:00 20,2 8,8 - - 24 13 - - OZO 1023,8 25 0,0
31.05.2020 12:00:00 19,3 8,0 - - 24 13 - - O 1023,8 27 0,0
31.05.2020 11:00:00 17,5 6,1 - - 28 15 - - O 1024,0 30 0,0
31.05.2020 10:00:00 16,7 5,3 14,7 11,7 29 16 - - ONO 1024,1 30 0,0
31.05.2020 09:00:00 13,8 5,5 - - 35 19 46 25 ONO 1024,3 22 0,0
31.05.2020 08:00:00 11,6 6,6 - - 37 20 46 25 O 1024,7 18 0,0
31.05.2020 07:00:00 10,0 7,4 - - 34 18 - - O 1024,7 13 0,0
31.05.2020 06:00:00 9,0 7,0 - - 34 18 - - O 1024,5 13 0,0
31.05.2020 05:00:00 8,2 6,7 - - 28 15 - - O 1024,7 12 0,0
31.05.2020 04:00:00 8,4 5,9 - - 22 12 - - O 1024,9 19 0,0
31.05.2020 03:00:00 9,0 6,2 - - 22 12 - - O 1025,2 20 0,0
31.05.2020 02:00:00 9,5 6,2 - - 21 11 - - O 1025,3 20 0,0
31.05.2020 01:00:00 10,7 5,6 - - 22 12 - - O 1025,3 25 0,0
31.05.2020 00:00:00 11,6 5,0 - - 29 16 - - O 1024,7 30 0,0
30.05.2020 23:00:00 12,7 4,5 - - 31 17 - - O 1024,2 30 0,0
30.05.2020 22:00:00 13,5 4,3 - - 26 14 - - O 1023,9 30 0,0
30.05.2020 21:00:00 15,8 4,8 - - 28 15 - - O 1022,8 30 0,0
30.05.2020 20:00:00 17,9 6,9 - - 21 11 - - OZO 1022,3 25 0,0

tt = temperatuur
td = dauwpunt
tt -20cm = temperatuur -20cm
tt -100cm = temperatuur -100cm
ff = windsnelheid
fx = windstoten
dd = windrichting
ppp = luchtdruk
vv = zicht
rr = neerslag

Weerstations in de omgeving